P 76-5 DEB

Satellite information

Favourite Embed

Satellite Type and Status

DEBRISIN ORBIT

Key statistics

Satellite P 76-5 DEB at a glance.

Uptime

17885

Days in orbit

Revolutions

≈ 13.7

Per day

Orbit

SSO

Sun Synchronous Orbit

Inclination

99.9

Latest

Satellite identification and parameters

Extended collection of information and parameters for P 76-5 DEB.

Object identification

Identified? True

Debris? True

Object name: P 76-5 DEB

International designator: 1976-047E

Object number (NORAD): 59984

Object ID (CCSDS): 59984

Country: UNITED STATES OF AMERICA (US)

Current information (Y/N): Y

RCS size: SMALL

Orbital parameters

Period: 104.936 minutes

Inclination: 99.8879 deg

SMA: 7369.581 km

Apoapsis: 1020.944 km

Periapsis: 961.949 km

RAAN: 323.5919 deg

Eccentricy: 0.0040026

Argument of periapsis: 290.9533 deg

Mean anomaly: 68.7332 deg

Mean motion: 13.72266794 rev/day

Mean motion (dot): 0.00001483 rev/day2

B* drag term: 0.0016691 1/REarth

Two-line elements (TLE)

Creation date: May 9, 2025, 2:46 a.m.

Reference frame: TEME

Reference center: EARTH

Epoch: May 8, 2025, 6:55 p.m. UTC

TLE line 0: 0 P 76-5 DEB

TLE line 1: 1 59984U 76047E 25128.78849976 .00001483 00000-0 16691-2 0 9996

TLE line 2: 2 59984 99.8879 323.5919 0040026 290.9533 68.7332 13.72266794216692

Live tracking on map

Real-time ground track for satellite P 76-5 DEB.

In-orbit conjunctions

A list of the most updated potential collisions computed for object P 76-5 DEB.

Target Orbit TCA Probability of collision Miss distance Type
FENGYUN 1C DEB SSO 2024-09-27 23:42:22 0.0002807426 290.0 (m) DEBRIS
SL-8 R/B LEO 2024-09-05 00:07:21 0.0001667654 135.0 (m) ROCKET BODY

Associated space launch

Experimental military satellite

P 76-5 DEB was lifted into orbit during the mission ‘Scout B-1 | Wideband’, on board a Scout B-1 space rocket.

The launch took place on May 22, 1976, 7:42 a.m. from Space Launch Complex 5.

For more information about the launch, click the button.

Launch to space Scout B-1 | Wideband
Scout B-1 | Wideband

Agency: N/A

Status: Launch Successful

Launch date: May 22, 1976, 7:42 a.m. UTC

Rocket: Scout B-1

Launch pad: Space Launch Complex 5

Location: Vandenberg SFB, CA, USA

...

Latest news about this satellite

There are no fresh news available about this satellite. Check back as we update our databases every day.


Newsletter sign-up

Weekly statistics, charts and insights to help you stay on top of the space industry.